Theta_e
329 330 330 330 329 329 329 329 329 330 330 330 330 328 326 325 324 323 323 321 320 320 319 318 316 314 315 313 308 304 304 301 297 295 294 294 293 293 292 292 292 292
329 329 330 329 329 329 329 328 329 329 330 330 330 329 327 325 323 323 322 321 320 319 318 316 315 314 314 310 304 302 299 297 295 294 293 293 292 292 292 292 291 291
328 328 329 328 328 329 328 328 328 329 330 329 329 328 327 325 324 323 322 320 320 319 318 316 314 314 313 307 301 299 296 294 294 293 293 292 292 291 291 291 291 290
327 327 327 327 328 328 328 328 328 329 329 328 328 328 327 325 324 323 321 319 320 319 317 315 313 313 312 304 298 297 295 294 293 293 292 292 291 291 291 290 290 289
326 326 327 327 327 327 327 327 328 328 327 328 328 328 327 325 323 323 320 319 320 318 315 314 313 312 310 303 297 296 294 293 293 292 292 291 290 290 290 290 289 289
325 325 325 326 327 327 327 327 327 328 328 328 328 327 326 324 323 322 320 319 320 317 314 313 312 311 308 301 296 294 293 293 292 291 291 291 290 290 289 289 288 288
324 324 325 325 326 326 326 326 327 328 328 328 328 327 325 323 322 321 320 320 319 316 313 312 310 309 306 299 295 294 292 292 291 290 290 291 290 289 289 288 288 288
323 324 324 324 325 325 325 326 326 327 328 328 328 326 324 323 323 321 320 320 319 315 312 309 308 307 303 297 294 293 292 291 291 290 290 290 290 289 288 288 288 288
322 322 323 324 324 325 325 325 325 327 328 328 327 325 322 322 322 321 320 320 318 313 309 307 307 305 299 294 293 292 291 291 290 290 290 290 289 289 288 288 288 288
320 321 322 323 324 324 325 324 325 325 326 327 326 323 321 321 320 320 319 319 315 310 306 305 304 300 295 293 292 291 291 291 290 289 289 289 289 288 288 288 288 288
318 320 322 322 323 323 323 323 324 324 324 325 324 322 321 320 318 318 319 317 313 307 304 303 300 296 294 292 291 291 291 290 290 289 289 288 288 288 288 288 287 287
316 318 320 321 322 322 322 322 322 322 322 323 323 321 321 319 317 317 317 315 310 304 302 300 297 294 293 291 291 290 290 290 289 289 288 288 288 288 288 288 287 287
315 317 318 320 320 320 321 320 320 320 320 321 321 320 319 318 317 316 315 312 307 302 300 297 295 293 292 291 290 290 289 289 289 288 288 288 288 288 287 287 287 287
316 317 318 319 319 319 319 319 319 318 318 318 318 318 319 319 317 316 313 308 303 300 298 295 293 292 291 290 290 289 289 289 288 288 288 288 288 287 287 287 287 287
316 317 317 317 317 316 316 316 316 316 315 315 316 317 317 317 317 316 311 304 301 298 296 293 292 291 290 290 290 289 289 288 288 288 288 288 288 287 287 287 286 286
314 314 314 314 314 313 313 313 314 314 314 314 315 315 313 314 315 312 307 302 299 296 294 292 291 291 290 290 290 289 289 288 288 288 287 288 287 287 287 286 286 286
312 311 311 310 310 310 311 312 312 312 312 313 314 313 311 311 311 307 302 300 298 295 293 291 290 290 290 289 289 289 289 288 288 288 287 287 287 287 287 286 286 286
310 309 308 309 310 310 310 310 310 311 311 312 313 311 309 308 306 303 299 298 296 293 291 290 290 289 289 289 288 288 288 288 288 287 287 287 287 287 286 286 285 285
308 307 306 308 310 311 310 310 310 310 311 311 310 308 306 305 302 299 297 295 293 291 290 290 289 289 288 288 288 287 287 287 287 287 287 287 287 286 286 286 285 285
307 306 306 308 308 309 309 309 309 309 308 307 306 305 303 301 298 296 294 293 291 290 290 289 288 288 288 287 287 287 287 287 287 287 287 286 286 286 286 285 285 285
306 305 306 307 307 307 308 308 307 306 305 304 304 303 301 298 295 294 292 291 290 289 289 288 288 288 287 287 287 287 287 286 286 286 286 286 286 285 285 285 285 285
306 305 305 305 306 306 305 305 304 303 303 303 300 298 296 295 293 292 291 290 289 289 288 288 287 287 287 287 287 287 286 286 286 286 286 285 285 285 285 285 285 284
306 306 305 305 304 304 303 302 302 301 301 299 297 294 292 292 291 290 289 289 288 288 288 288 287 287 287 287 287 286 286 286 286 285 285 285 285 285 285 285 285 284
304 305 304 304 303 302 302 301 300 299 297 295 294 292 291 290 289 289 288 288 288 288 288 288 287 287 286 286 286 286 286 286 285 285 285 285 285 285 285 284 285 285
303 303 303 303 302 301 300 299 297 296 294 292 291 290 289 289 288 288 287 287 287 287 287 288 288 287 286 286 286 286 286 285 285 285 285 285 285 285 284 284 285 285
301 302 302 301 301 299 298 296 294 293 292 290 289 288 288 288 287 287 287 287 287 287 287 287 287 287 286 286 286 286 285 285 285 285 285 285 285 285 285 285 285 284
Wind_Speed
24 24 25 23 22 24 26 29 32 33 35 34 31 29 28 25 23 26 27 23 18 16 14 14 14 15 15 15 15 16 18 18 17 17 16 15 14 13 12 10 8 6
24 25 25 22 22 25 26 28 32 34 34 34 32 29 29 26 24 27 29 25 20 17 16 15 15 15 15 16 17 19 19 19 18 17 17 16 15 13 11 9 7 6
24 25 25 25 26 28 27 27 31 34 34 34 33 31 30 27 25 28 29 24 20 18 16 16 16 16 17 18 20 20 20 20 19 18 17 16 15 13 11 9 8 7
27 26 26 27 28 29 29 28 30 33 34 35 35 33 32 28 26 29 29 24 20 18 16 17 18 18 19 20 21 21 20 20 20 19 18 17 15 13 11 9 8 7
31 30 29 29 28 27 29 30 31 32 34 35 36 34 33 30 28 30 29 25 20 17 17 19 20 20 21 22 23 22 21 21 20 19 18 17 15 12 11 9 8 7
32 32 31 31 29 28 30 32 33 34 34 36 35 34 33 31 30 31 29 24 19 17 19 22 22 23 24 24 24 23 22 22 20 19 18 16 15 12 10 10 8 7
31 31 32 31 30 29 31 33 34 35 35 36 35 35 35 32 30 31 29 23 19 19 22 24 25 26 26 25 25 23 23 22 21 20 18 16 14 13 11 10 8 7
30 30 31 31 31 31 32 33 34 36 36 35 34 35 36 34 31 31 28 23 21 21 24 26 27 28 27 27 26 24 23 22 21 20 18 16 15 14 13 11 9 7
28 29 30 31 33 33 34 34 35 36 37 35 34 36 37 34 32 32 28 23 22 23 25 28 29 29 28 27 26 25 24 23 21 20 17 16 15 14 13 11 9 7
27 28 29 31 33 34 35 35 35 36 37 35 34 36 36 33 32 31 26 22 23 26 28 30 31 30 29 27 26 25 24 23 21 19 17 16 15 13 12 10 8 6
27 28 29 31 33 33 34 35 35 36 36 35 35 35 34 34 33 29 24 23 26 29 31 33 32 31 30 28 26 25 24 22 21 19 17 16 14 12 11 9 8 6
27 28 29 30 32 32 33 34 35 36 36 36 36 36 35 34 32 27 23 25 28 32 34 34 33 31 30 28 27 25 23 22 20 19 18 16 14 12 10 9 7 5
27 28 28 29 30 31 32 33 34 35 36 37 37 38 37 35 29 25 24 27 31 34 35 34 33 31 30 28 27 25 24 22 21 20 18 16 14 12 10 8 6 4
27 27 28 29 29 30 31 32 34 35 36 37 38 38 36 32 27 25 26 30 33 35 35 34 33 32 31 29 27 26 24 23 21 20 18 16 14 12 10 8 6 4
26 27 28 28 29 30 31 32 32 33 34 36 37 36 34 30 27 27 30 34 36 36 35 34 33 32 31 29 28 26 25 23 21 19 17 15 13 12 10 8 6 4
24 25 27 28 28 29 30 31 32 33 35 36 35 33 31 30 28 30 34 37 37 36 35 34 33 32 30 28 27 26 24 23 20 18 16 14 13 12 10 8 6 5
23 24 25 26 27 28 29 30 32 34 35 34 32 31 30 30 31 34 37 38 38 37 36 34 33 31 29 27 25 24 23 22 20 18 16 14 12 11 10 8 7 5
24 24 25 25 25 26 28 29 31 32 31 31 31 31 31 32 34 36 38 38 37 37 36 35 33 30 29 27 25 24 22 20 19 18 16 15 13 11 10 8 7 6
24 25 25 26 26 27 28 29 29 30 30 30 31 31 32 34 36 38 39 38 38 37 36 34 32 30 29 27 25 24 22 20 19 18 16 14 13 11 10 9 8 7
25 26 26 26 27 28 28 29 29 29 29 30 31 32 34 36 39 39 39 38 38 37 36 34 33 31 30 28 26 24 22 20 19 18 16 14 13 12 10 9 8 7
25 26 26 26 27 27 27 28 28 28 29 29 31 33 36 39 40 40 39 38 37 37 36 34 33 31 30 28 27 25 23 21 19 18 17 15 14 13 11 9 8 7
25 25 26 26 27 28 28 28 28 28 29 31 33 35 37 39 40 39 39 38 37 36 36 34 32 31 30 29 27 26 24 22 20 19 17 16 15 13 11 10 8 7
27 27 27 26 27 27 28 29 28 29 31 33 35 37 38 38 39 38 38 38 38 36 35 34 33 32 31 29 28 26 24 23 21 19 18 16 15 13 11 10 8 6
28 28 28 27 27 28 28 29 29 30 32 34 36 38 38 38 38 37 37 37 37 37 36 35 34 33 31 30 28 26 24 23 22 20 18 17 15 13 12 9 7 5
26 27 28 28 28 29 29 29 29 31 32 33 35 36 36 36 36 37 36 36 36 36 35 34 34 33 32 30 28 26 24 23 21 20 19 18 16 14 12 9 7 7
26 27 27 27 28 28 28 28 29 30 32 33 33 34 35 35 35 36 36 36 36 35 34 34 34 33 32 30 28 27 25 23 22 21 20 18 17 15 12 9 9 10
Wind_Direction
215 215 215 215 215 215 215 215 215 215 216 216 216 213 211 213 215 209 205 206 210 216 230 243 237 218 206 201 194 184 175 171 170 168 168 169 170 170 166 161 152 148
216 216 215 214 214 215 215 215 217 217 217 218 216 214 213 213 212 208 206 207 209 221 238 239 224 210 204 196 185 176 171 171 171 170 170 171 172 169 163 158 154 153
215 215 215 215 215 216 215 215 218 220 219 217 215 213 211 211 210 208 206 206 209 225 240 229 211 204 200 192 181 176 174 173 172 171 172 173 170 166 162 160 160 157
215 215 215 217 219 218 215 214 217 218 217 215 213 211 209 207 207 206 204 204 213 232 235 217 204 199 196 190 181 177 176 175 174 173 173 171 167 165 164 163 162 157
219 218 218 218 219 217 215 215 216 215 213 214 214 211 207 205 205 205 202 204 218 234 222 204 200 198 193 187 181 178 178 176 175 174 173 169 166 167 167 163 161 156
221 221 221 220 219 216 216 216 217 216 214 215 215 211 207 205 204 202 202 207 221 225 209 201 200 196 189 184 181 180 180 178 176 174 174 171 167 168 166 163 162 159
222 222 222 221 218 214 215 217 216 216 216 215 213 210 206 202 201 202 203 211 222 217 206 203 198 191 186 183 181 182 181 179 176 174 175 173 169 169 166 163 165 165
221 221 220 219 216 213 215 216 215 215 215 214 212 210 204 199 200 202 204 213 220 212 204 201 195 188 185 183 182 183 181 179 177 176 177 175 171 169 166 165 170 172
220 220 219 218 217 216 216 216 215 215 213 212 213 209 200 197 201 202 203 212 213 205 200 197 192 187 184 183 184 184 182 180 178 177 179 177 172 169 167 168 173 175
219 219 219 218 217 217 216 214 215 214 210 210 211 204 196 196 200 200 203 209 206 199 196 193 188 185 184 184 186 186 185 182 178 178 181 178 173 170 168 169 173 174
217 218 218 218 217 216 215 213 213 211 207 206 205 200 197 197 196 196 202 207 202 196 193 189 186 185 184 184 186 187 186 183 179 179 179 176 173 171 169 170 170 169
215 216 217 217 216 215 214 212 211 208 204 202 200 198 198 197 194 196 201 203 198 193 191 188 186 186 186 185 185 186 185 183 180 179 178 175 173 171 169 170 168 165
214 215 216 216 215 214 214 212 210 208 204 201 199 197 195 194 195 198 200 199 195 191 189 188 186 187 187 186 185 185 184 183 180 179 177 175 173 171 168 168 166 167
212 213 213 215 215 213 212 211 210 208 204 199 197 195 194 194 197 200 198 195 192 190 188 188 188 188 187 186 185 184 184 184 182 180 179 175 172 169 168 167 167 170
211 211 210 210 211 210 208 207 206 205 202 197 193 192 194 195 198 201 196 191 189 188 188 189 190 190 189 188 186 184 184 184 182 181 180 176 171 168 168 168 170 177
210 210 208 206 206 206 204 203 201 198 195 193 192 193 194 194 196 198 194 189 187 187 188 190 191 192 190 189 188 187 185 184 182 181 179 176 173 170 169 171 173 183
207 207 206 205 203 201 200 199 197 194 191 190 192 194 195 195 195 194 190 188 187 188 189 190 191 190 188 187 188 189 187 185 182 181 178 176 175 173 172 174 176 185
206 202 199 200 201 201 200 197 193 191 190 191 194 196 196 195 193 191 188 188 188 188 189 190 189 188 187 186 186 187 188 188 185 182 180 177 176 176 176 176 179 188
206 201 195 195 198 199 198 195 192 193 195 196 197 197 196 193 191 189 188 188 188 188 189 189 187 186 186 185 184 185 187 188 186 184 181 179 178 178 178 180 184 192
202 200 198 197 197 195 194 194 195 196 198 199 199 197 195 192 189 188 187 188 189 189 188 187 186 186 185 184 184 185 187 188 187 184 182 180 179 180 181 183 189 196
201 198 197 196 196 195 194 196 197 199 200 201 201 198 194 191 188 188 188 187 188 189 187 186 186 185 185 184 186 187 187 188 187 185 183 181 180 181 183 187 192 197
204 201 198 197 196 195 196 199 200 202 204 203 200 195 192 190 189 189 189 187 187 188 187 185 185 186 186 186 188 189 188 187 187 185 183 182 182 183 185 190 195 197
208 207 205 203 202 200 201 203 204 205 205 201 196 191 189 190 189 189 189 188 187 188 187 186 185 186 187 188 189 190 190 188 187 185 184 184 183 185 189 194 196 199
210 210 210 209 209 208 207 207 207 206 203 198 194 191 190 190 190 189 189 190 190 190 190 190 188 187 188 190 191 192 192 191 188 186 185 185 184 187 192 194 199 211
213 213 214 214 214 213 210 208 205 202 199 196 194 193 191 190 190 190 189 190 192 192 192 193 192 189 190 191 191 192 193 191 190 188 186 186 187 190 192 194 206 223
214 214 215 215 214 211 207 205 202 200 197 194 193 193 192 191 191 192 191 191 192 192 193 195 195 192 191 192 192 193 193 192 193 192 189 188 190 192 193 198 214 224